TimeCST,TemperatureF,Dew PointF,Humidity,Sea Level PressureIn,VisibilityMPH,Wind Direction,Wind SpeedMPH,Gust SpeedMPH,PrecipitationIn,Events,Conditions,WindDirDegrees,DateUTC
12:53 AM,36.0,28.0,73,30.17,10.0,North,6.9,-,N/A,,Overcast,360,2012-12-27 06:53:00
1:53 AM,35.1,28.0,76,30.16,10.0,North,5.8,-,N/A,,Overcast,10,2012-12-27 07:53:00
2:53 AM,36.0,28.9,76,30.17,10.0,Calm,Calm,-,N/A,,Overcast,0,2012-12-27 08:53:00
3:53 AM,35.1,28.0,76,30.14,10.0,ENE,8.1,-,N/A,,Overcast,70,2012-12-27 09:53:00
4:53 AM,35.1,28.0,76,30.14,10.0,NE,5.8,-,N/A,,Overcast,40,2012-12-27 10:53:00
5:53 AM,35.1,28.0,76,30.17,10.0,Calm,Calm,-,N/A,,Overcast,0,2012-12-27 11:53:00
7:53 AM,35.1,28.0,76,30.19,10.0,NNE,3.5,-,N/A,,Overcast,30,2012-12-27 13:53:00
8:53 AM,35.1,28.9,78,30.21,10.0,Calm,Calm,-,N/A,,Overcast,0,2012-12-27 14:53:00
9:53 AM,37.0,28.9,73,30.22,10.0,Calm,Calm,-,N/A,,Overcast,0,2012-12-27 15:53:00
10:50 AM,39.2,30.2,70,30.21,10.0,Calm,Calm,-,N/A,,Mostly Cloudy,0,2012-12-27 16:50:00
10:53 AM,39.0,30.0,70,30.21,10.0,Calm,Calm,-,N/A,,Scattered Clouds,0,2012-12-27 16:53:00
11:53 AM,42.1,30.0,62,30.17,10.0,Calm,Calm,-,N/A,,Clear,0,2012-12-27 17:53:00
12:53 PM,46.9,30.0,52,30.14,10.0,Calm,Calm,-,N/A,,Clear,0,2012-12-27 18:53:00
1:53 PM,48.0,30.9,52,30.12,10.0,Calm,Calm,-,N/A,,Clear,0,2012-12-27 19:53:00
2:53 PM,51.1,32.0,48,30.10,10.0,ESE,4.6,-,N/A,,Clear,120,2012-12-27 20:53:00
4:53 PM,50.0,34.0,54,30.10,10.0,ENE,3.5,-,N/A,,Clear,60,2012-12-27 22:53:00
6:53 PM,41.0,36.0,82,30.09,10.0,Calm,Calm,-,N/A,,Clear,0,2012-12-28 00:53:00
7:53 PM,39.9,35.1,83,30.08,10.0,SSE,4.6,-,N/A,,Clear,150,2012-12-28 01:53:00
8:53 PM,39.9,34.0,79,30.08,10.0,South,3.5,-,N/A,,Clear,180,2012-12-28 02:53:00
9:53 PM,37.9,35.1,89,30.09,10.0,Calm,Calm,-,N/A,,Clear,0,2012-12-28 03:53:00
10:53 PM,37.9,35.1,89,30.09,10.0,Calm,Calm,-,N/A,,Clear,0,2012-12-28 04:53:00
11:53 PM,37.9,34.0,86,30.08,10.0,Calm,Calm,-,N/A,,Mostly Cloudy,0,2012-12-28 05:53:00